| time (UTC) | temp F | wind direction | speed knots | gust knots | rain 1hr in | rain 24hr in | rain mn in | humidity % | barometer mb |
| 20260505123210 | 66 | 323 | 0.9 | 0.0 | 0.00 | 0.00 | 0.00 | 70 | 1008.1 |
| 20260505120210 | 67 | 329 | 2.6 | 0.0 | 0.00 | 0.00 | 0.00 | 67 | 1008.1 |
| 20260505113210 | 67 | 309 | 1.7 | 0.0 | 0.00 | 0.00 | 0.00 | 72 | 1008.0 |
| 20260505110211 | 67 | 338 | 4.3 | 0.0 | 0.00 | 0.00 | 0.00 | 65 | 1008.2 |
| 20260505100212 | 69 | 205 | 4.3 | 0.0 | 0.00 | 0.00 | 0.00 | 65 | 1008.6 |
| 20260505093212 | 67 | 320 | 2.6 | 0.0 | 0.00 | 0.00 | 0.00 | 72 | 1008.8 |
| 20260505090212 | 64 | 71 | 3.5 | 0.0 | 0.00 | 0.00 | 0.00 | 76 | 1009.2 |
| 20260505083211 | 61 | 207 | 3.5 | 0.0 | 0.00 | 0.00 | 0.00 | 76 | 1009.5 |
| 20260505080210 | 60 | 244 | 2.6 | 0.0 | 0.00 | 0.00 | 0.00 | 79 | 1009.8 |
| 20260505073211 | 59 | 195 | 0.0 | 0.0 | 0.00 | 0.00 | 0.00 | 80 | 1009.9 |
| 20260505070211 | 57 | 159 | 0.0 | 0.0 | 0.00 | 0.00 | 0.00 | 82 | 1010.2 |
| 20260505063211 | 56 | 157 | 0.0 | 0.0 | 0.00 | 0.00 | 0.00 | 83 | 1010.3 |
| 20260505060212 | 54 | 296 | 0.0 | 0.0 | 0.00 | 0.00 | 0.00 | 83 | 1010.4 |
| 20260505053211 | 53 | 296 | 0.0 | 0.0 | 0.00 | 0.00 | 0.00 | 83 | 1010.4 |
| 20260505050211 | 51 | 296 | 0.0 | 0.0 | 0.00 | 0.00 | 0.00 | 83 | 1010.7 |
| 20260505040211 | 51 | 238 | 0.0 | 0.0 | 0.00 | 0.00 | 0.00 | 84 | 1010.6 |
| 20260505033211 | 51 | 5 | 0.0 | 0.0 | 0.00 | 0.00 | 0.00 | 84 | 1010.7 |
| 20260505030213 | 52 | 15 | 0.0 | 0.0 | 0.00 | 0.00 | 0.00 | 84 | 1011.1 |
| 20260505023211 | 53 | 15 | 0.0 | 0.0 | 0.00 | 0.00 | 0.00 | 83 | 1011.3 |
| 20260505020211 | 55 | 15 | 0.0 | 0.0 | 0.00 | 0.00 | 0.00 | 82 | 1011.6 |
| 20260505013211 | 56 | 10 | 0.0 | 0.0 | 0.00 | 0.00 | 0.00 | 81 | 1012.1 |
| 20260505010211 | 56 | 10 | 0.0 | 0.0 | 0.00 | 0.00 | 0.00 | 81 | 1012.2 |
| 20260505003208 | 56 | 9 | 0.0 | 0.0 | 0.00 | 0.00 | 0.00 | 80 | 1012.2 |
| 20260505000211 | 56 | 26 | 0.0 | 0.0 | 0.00 | 0.00 | 0.00 | 81 | 1012.4 |
| 20260504233209 | 57 | 26 | 0.0 | 0.0 | 0.00 | 0.00 | 0.00 | 79 | 1012.7 |
| 20260504230210 | 58 | 26 | 1.7 | 0.0 | 0.00 | 0.00 | 0.00 | 76 | 1012.8 |
| 20260504223215 | 58 | 66 | 0.0 | 0.0 | 0.00 | 0.00 | 0.00 | 74 | 1013.0 |
| 20260504220209 | 58 | 89 | 0.0 | 0.0 | 0.00 | 0.00 | 0.00 | 74 | 1013.0 |
| 20260504213209 | 60 | 89 | 0.0 | 0.0 | 0.00 | 0.00 | 0.00 | 71 | 1013.2 |
| 20260504210209 | 61 | 0 | 2.6 | 0.0 | 0.00 | 0.00 | 0.00 | 67 | 1013.3 |
| 20260504203209 | 61 | 0 | 2.6 | 0.0 | 0.00 | 0.00 | 0.00 | 65 | 1013.5 |
| 20260504200209 | 62 | 0 | 2.6 | 0.0 | 0.00 | 0.00 | 0.00 | 64 | 1013.7 |
| 20260504193209 | 62 | 0 | 2.6 | 0.0 | 0.00 | 0.00 | 0.00 | 61 | 1013.4 |
| 20260504190209 | 62 | 0 | 2.6 | 0.0 | 0.00 | 0.00 | 0.00 | 63 | 1013.1 |
| 20260504183209 | 64 | 0 | 2.6 | 0.0 | 0.00 | 0.00 | 0.00 | 59 | 1012.9 |
| 20260504180214 | 65 | 5 | 8.7 | 0.0 | 0.00 | 0.00 | 0.00 | 57 | 1012.8 |
| 20260504173209 | 65 | 0 | 4.3 | 0.0 | 0.00 | 0.00 | 0.00 | 58 | 1012.5 |
| 20260504170210 | 67 | 0 | 4.3 | 0.0 | 0.00 | 0.00 | 0.00 | 53 | 1012.4 |
| 20260504160210 | 70 | 351 | 2.6 | 0.0 | 0.00 | 0.00 | 0.00 | 49 | 1012.4 |
| 20260504150210 | 72 | 331 | 5.2 | 0.0 | 0.00 | 0.00 | 0.00 | 42 | 1012.5 |
| 20260504140209 | 74 | 0 | 2.6 | 0.0 | 0.00 | 0.00 | 0.00 | 47 | 1012.9 |
| 20260504130215 | 71 | 345 | 6.1 | 0.0 | 0.00 | 0.00 | 0.00 | 52 | 1013.3 |